Weather observations for the past three days for
Bay St. Louis, Stennis International Airport
Imperial (Metric)
Date Time (cdt) Wind (mph) Vis. (mi.) Weather Sky Cond. Temperature (ºF) Relative Humidity Wind Chill (°F) Heat Index (°F) Pressure Precipitation (in)
Air Dwpt 6 hour altimeter (in) sea level (mb) 1 hr 3 hr 6 hr
Max. Min.
12 10:50 S 10 2.00 Thunderstorm BKN015 OVC030 84.2 75.2 74% 92 30.1 0.0
12 09:50 Calm 10.00 Mostly Cloudy BKN023 86 75.2 70% 95 30.09 0.0
12 08:47 Calm 10.00 Fair CLR 84.2 77 79% 94 30.09 0.0
12 07:47 Calm 10.00 Fair CLR 80.6 77 89% 87 30.07 0.0
12 06:47 Calm 10.00 Fair CLR 75.2 73.4 94% 74 30.05 0.0
11 20:50 Calm 10.00 Fair CLR 80.6 77 89% 87 30.01 0.0
11 19:50 Calm 10.00 Fair CLR 82.4 75.2 79% 89 30.01 0.0
11 18:50 Calm 10.00 Fair CLR 84.2 75.2 74% 92 30.01 0.0
11 17:50 S 8 10.00 Fair CLR 86 73.4 66% 93 30 0.0
11 16:50 SE 10 10.00 Fair CLR 89.6 73.4 59% 98 29.99 0.0
11 15:50 SW 6 10.00 Fair CLR 87.8 71.6 59% 94 30 0.0
11 14:50 S 9 10.00 Partly Cloudy SCT035 86 75.2 70% 95 30.01 0.0
11 13:50 S 9 10.00 Mostly Cloudy BKN035 89.6 71.6 55% 96 30.02 0.0
11 12:50 S 10 10.00 Partly Cloudy SCT030 87.8 73.4 62% 96 30.04 0.0
11 11:50 E 5 G 12 10.00 Mostly Cloudy BKN030 89.6 69.8 52% 95 30.05 0.0
11 10:50 Vrbl 5 10.00 Mostly Cloudy BKN030 87.8 73.4 62% 96 30.05 0.0
11 09:50 Calm 10.00 Fair CLR 86 73.4 66% 93 30.04 0.0
11 08:50 Calm 7.00 Partly Cloudy SCT070 84.2 77 79% 94 30.04 0.0
11 07:50 Calm 7.00 Partly Cloudy SCT070 78.8 75.2 89% 82 30.03 0.0
11 06:50 Calm 7.00 Partly Cloudy SCT070 73.4 73.4 100% 30.02 0.0
10 20:50 Calm 10.00 Partly Cloudy SCT030 78.8 75.2 89% 82 29.99 0.0
10 19:50 Calm 10.00 Partly Cloudy SCT030 80.6 75.2 84% 86 29.99 0.0
10 18:50 S 6 10.00 Partly Cloudy SCT030 84.2 75.2 74% 92 29.99 0.0
10 17:50 S 6 10.00 Partly Cloudy SCT030 84.2 75.2 74% 92 29.99 0.0
10 16:50 S 8 10.00 Overcast BKN022 OVC048 84.2 75.2 74% 92 29.98 0.0
10 15:50 S 5 10.00 Partly Cloudy SCT030 86 73.4 66% 93 29.99 0.0
10 14:50 S 7 10.00 Partly Cloudy SCT030 84.2 73.4 70% 91 30.01 0.0
10 13:50 S 9 10.00 Partly Cloudy SCT030 86 73.4 66% 93 30.02 0.0
10 12:50 S 6 10.00 Partly Cloudy SCT030 87.8 73.4 62% 96 30.03 0.0
10 11:47 E 7 10.00 Partly Cloudy SCT050 84.2 71.6 66% 90 30.04 0.0
10 09:50 E 8 10.00 Mostly Cloudy BKN047 82.4 73.4 74% 88 30.03 0.0
10 08:47 E 6 10.00 Partly Cloudy SCT043 80.6 75.2 84% 86 30.02 0.0
10 07:47 Calm 10.00 Mostly Cloudy BKN075 78.8 77 94% 83 30 0.0
10 06:47 Calm 10.00 Mostly Cloudy SCT070 BKN085 77 75.2 94% 78 29.97 0.0
09 20:50 Calm 10.00 Partly Cloudy SCT040 78.8 75.2 89% 82 29.94 0.0
09 19:50 SW 9 10.00 Partly Cloudy SCT040 80.6 75.2 84% 86 29.94 0.0
09 18:50 S 8 G 15 10.00 Partly Cloudy SCT040 SCT075 82.4 77 84% 91 29.92 0.0
09 17:50 S 15 G 23 10.00 Thunderstorm in Vicinity SCT024 SCT040 86 77 75% 97 29.91 0.0
09 16:50 SW 13 10.00 Partly Cloudy SCT035 SCT044 89.6 75.2 63% 100 29.9 0.0
09 15:50 SW 8 G 14 10.00 Partly Cloudy SCT030 SCT095 89.6 75.2 63% 100 29.91 0.0
09 14:55 SW 8 G 14 10.00 Partly Cloudy SCT030 86 77 75% 97 29.92 0.0
09 13:50 NW 8 G 20 10.00 Partly Cloudy SCT020 82.4 77 84% 91 29.93 0.0
09 12:47 SW 7 G 20 10.00 Light Rain SCT024 BKN031 82.4 75.2 79% 89 29.95 0.0
09 11:47 SW 7 G 17 10.00 Light Rain SCT030 BKN045 78.8 75.2 89% 82 29.97 0.0
Date Time (cdt) Wind (mph) Vis. (mi.) Weather Sky Cond. Air Dwpt Max. Min. Relative Humidity Wind Chill (°F) Heat Index (°F) altimeter (in) sea level (mb) 1 hr 3 hr 6 hr
6 hour
Temperature (ºF) Pressure Precipitation (in)